Temp_Advection
nan nan nan nan nan nan nan nan nan nan nan nan nan nan nan nan nan nan nan nan nan nan nan nan nan nan nan nan nan nan nan nan nan nan nan nan nan nan
nan 0 0 0 0 0 0 1 1 1 -2 -2 1 0 0 -0 -0 -1 -1 -1 -0 -0 -0 0 0 0 0 1 0 -0 0 0 -0 -0 -0 0 0 nan
nan 0 0 0 0 0 0 0 1 1 -1 -3 -0 1 0 -0 -0 -0 -1 -1 -1 -0 -0 -0 -0 0 0 0 1 0 0 -0 -0 -0 -0 -0 -0 nan
nan 0 0 0 0 0 0 0 0 1 1 -1 -3 -1 -0 -0 0 -0 -1 -1 -2 -1 -0 -0 -0 -0 0 0 1 0 -0 -0 0 -0 -0 0 -0 nan
nan 0 0 -0 -0 0 0 0 0 1 1 1 -1 -1 -2 -2 -1 -0 0 -0 -0 -1 -1 -1 -1 -0 0 0 0 -0 -1 -0 -0 -0 0 0 -0 nan
nan 0 0 0 -0 -0 -0 0 0 0 1 1 0 -0 -0 -1 -1 -1 -1 -0 -0 -1 -0 -0 -0 -0 0 0 0 0 -0 -0 -0 -0 0 0 0 nan
nan 0 0 0 0 0 -0 -0 0 0 0 0 0 -0 0 -0 -0 -0 -1 -1 -1 -1 -1 -1 -0 -0 -0 0 0 0 -0 -0 -0 0 0 -1 -1 nan
nan -0 0 0 0 0 0 0 1 1 0 -0 -0 -0 -0 0 0 0 -0 0 -1 -1 -1 -1 -1 -1 -1 -0 0 -0 0 0 0 0 -0 -0 -0 nan
nan -0 -0 0 0 0 0 1 0 1 1 0 -0 -0 -0 -0 0 -0 -0 -0 0 0 -0 -1 -1 -1 -1 -1 -0 -0 -0 -0 1 0 -1 -0 -0 nan
nan 0 -0 -0 0 0 -0 0 0 0 1 0 0 -0 0 -0 -0 -0 -0 -0 -0 0 0 -0 -1 -1 -0 -0 -0 0 0 0 1 0 -1 -1 -0 nan
nan 0 0 -0 0 0 0 0 -0 -0 -0 -0 -0 0 0 -0 -1 -1 -0 0 -1 0 1 -0 -1 -1 -1 -1 -1 -0 0 0 1 0 -0 -0 -0 nan
nan -0 0 0 0 1 1 0 -0 -0 -0 -0 0 0 0 1 -0 -1 -1 -0 1 -0 -1 -0 0 -0 -1 -1 -0 -0 -0 -0 0 0 0 -0 0 nan
nan -1 0 1 0 1 1 0 -0 -0 -0 -0 -0 -0 -0 -0 -0 0 0 0 0 -0 -1 -1 -0 -0 -0 -0 -1 -1 0 0 -0 -0 0 0 0 nan
nan -0 -0 -0 0 1 0 -0 -0 -0 -0 0 -0 -0 -1 -1 -0 -0 0 0 0 -0 -0 0 0 -0 -0 -1 -1 -1 -0 0 -0 0 0 0 -0 nan
nan -0 0 0 0 -0 0 0 -0 -0 -0 0 -0 -0 -0 -0 -1 -1 -0 0 0 -0 -0 0 0 -0 0 0 -0 -1 -0 -0 0 0 0 0 0 nan
nan -0 0 -0 0 0 -0 0 0 0 0 0 -0 -1 -0 -0 -0 -0 -0 -0 -0 -1 0 0 -0 0 0 -0 -0 -0 0 0 0 0 0 0 0 nan
nan -0 -0 0 -0 0 -0 -0 0 0 -0 -0 -0 -1 -1 -0 -0 -0 -0 -0 -0 -0 -0 -0 -0 -0 -0 0 -0 0 0 0 0 0 0 0 0 nan
nan -0 -0 0 -0 -0 -0 -0 -0 -0 -0 -0 -0 -1 -0 -0 -0 -0 -0 -0 0 -0 -0 0 -0 -0 -0 -0 0 0 0 0 0 0 0 -0 -0 nan
nan 0 -0 -0 -0 -0 0 -0 -0 0 -0 -0 -0 -0 -0 -0 -0 -0 -0 -0 -0 0 0 -0 0 0 -0 -0 0 0 0 0 0 0 0 0 -0 nan
nan -0 -0 -0 -0 -0 -0 0 0 -0 -0 -0 -0 -0 -0 -0 -0 -0 -0 -0 -0 0 0 0 0 0 0 0 0 0 0 0 0 0 0 -0 -0 nan
nan -0 -0 -0 -0 0 -0 -0 -0 -0 -0 -0 -0 -0 -0 -0 -0 -0 -0 -0 0 0 0 0 0 0 0 0 0 0 0 -0 0 -0 -0 -0 -0 nan
nan -0 -0 -0 -0 -0 -0 -0 -0 -0 -0 -0 -0 -0 -0 -0 -0 -0 -0 -0 0 0 0 0 0 0 0 0 0 0 -0 -0 -0 -0 0 -0 -0 nan
nan nan nan nan nan nan nan nan nan nan nan nan nan nan nan nan nan nan nan nan nan nan nan nan nan nan nan nan nan nan nan nan nan nan nan nan nan nan
Wind_Speed
17 17 17 16 18 18 19 20 20 25 34 26 26 25 30 28 26 24 24 23 22 22 24 27 30 31 30 27 25 24 24 23 25 25 24 25 24 22
19 19 19 20 20 20 20 20 20 21 27 34 36 34 31 29 27 26 25 26 26 26 25 26 28 30 31 30 28 28 27 27 25 25 24 25 25 24
21 21 21 22 22 22 21 21 21 21 25 32 32 32 33 32 28 25 24 23 23 24 24 25 27 29 30 31 31 30 30 31 27 26 25 25 25 25
24 24 23 23 22 21 22 21 21 21 23 26 30 31 31 30 30 28 26 26 25 22 22 24 25 26 28 29 30 29 32 34 33 32 28 28 27 27
25 25 23 23 23 23 23 24 23 22 21 23 26 26 29 28 28 27 27 29 28 25 25 24 23 27 29 30 28 27 28 30 34 34 32 30 28 29
25 24 23 23 24 24 24 24 23 22 22 24 26 25 24 27 29 30 32 31 33 32 30 28 27 26 24 26 27 28 29 29 33 34 30 33 33 33
25 23 23 23 24 24 24 24 23 23 24 26 28 29 27 24 24 27 30 33 35 35 32 27 25 26 27 27 26 25 25 29 33 33 33 34 33 34
27 24 24 25 24 24 24 23 22 22 24 26 29 28 29 27 26 29 35 36 38 32 33 37 33 36 34 30 29 28 28 28 29 32 32 32 33 36
27 26 26 25 25 26 26 25 24 23 21 24 29 32 34 33 34 35 34 36 37 35 34 40 37 39 42 33 29 31 29 25 26 27 31 30 30 31
28 26 26 27 25 26 27 28 27 28 30 30 31 33 33 33 34 35 36 39 37 36 30 36 38 39 33 37 32 32 27 26 26 25 26 29 29 28
28 26 27 27 25 25 27 27 28 31 33 31 32 34 31 32 34 35 36 35 40 44 33 31 36 34 31 34 32 27 19 23 25 24 24 27 27 27
28 27 27 27 27 27 25 25 28 32 33 34 34 36 39 41 33 30 30 33 38 39 23 17 25 28 32 30 20 17 26 20 19 21 26 28 26 27
29 30 28 27 27 27 25 24 28 30 32 33 37 40 44 39 32 26 26 28 32 37 34 29 31 27 20 32 36 27 22 17 17 16 20 23 24 25
29 30 29 28 29 28 25 27 26 30 32 34 39 36 39 30 29 28 27 30 32 36 29 28 33 31 29 28 28 27 25 19 14 14 16 17 23 17
26 27 28 28 26 27 27 29 29 30 33 37 33 33 33 29 34 29 29 28 27 24 24 24 24 24 25 27 27 27 22 15 12 14 14 16 17 20
27 28 28 28 29 29 34 32 33 26 32 31 31 35 30 27 25 27 30 27 25 25 23 18 16 19 20 20 19 20 15 10 11 11 12 14 16 18
27 30 32 33 33 29 31 34 32 28 35 29 32 33 27 24 26 29 26 23 23 23 21 16 13 14 14 13 16 13 10 14 14 14 16 16 16 17
27 29 29 27 29 33 33 29 31 33 29 31 26 26 25 24 28 26 22 23 22 19 15 11 11 10 9 10 11 10 13 14 15 17 17 17 19 18
25 26 28 31 30 27 27 29 35 29 28 25 24 23 20 25 25 22 21 19 15 11 9 7 7 5 9 11 10 10 11 11 11 12 12 14 15 14
26 29 28 25 25 24 29 36 29 29 26 23 22 20 24 24 21 19 18 14 9 7 5 5 6 8 10 9 7 8 8 10 11 12 10 8 10 11
27 26 26 24 26 34 26 28 25 23 22 21 21 20 21 19 18 16 13 9 6 5 5 4 3 5 5 6 6 7 9 10 10 12 13 12 9 8
26 25 27 32 26 26 24 22 21 20 19 19 19 19 18 15 14 10 8 4 4 5 5 3 4 4 5 5 7 10 11 9 9 9 10 11 10 3
28 26 23 24 23 22 21 20 19 19 18 18 18 16 13 12 8 5 3 3 3 2 3 4 3 3 4 5 7 9 8 6 5 5 6 7 7 9
Wind_Direction
316 314 313 312 308 304 300 297 296 300 306 302 307 306 311 310 306 302 298 295 287 280 274 264 263 266 267 267 269 270 271 271 270 267 267 267 266 264
314 312 311 310 307 305 302 298 292 287 285 296 300 305 307 306 305 303 299 294 290 284 277 273 270 267 266 266 267 268 267 269 270 269 267 264 263 263
311 309 309 308 307 305 301 298 294 289 285 292 296 300 301 304 307 307 306 301 293 291 285 276 270 268 269 268 266 263 265 266 266 267 267 262 260 260
308 307 306 306 307 306 305 304 300 296 292 295 298 301 304 309 312 314 314 314 311 303 291 285 280 274 269 270 272 271 263 260 263 264 265 260 255 255
307 304 303 303 304 304 305 306 305 303 301 298 302 305 305 310 313 311 311 314 314 314 308 301 290 282 278 275 271 268 267 262 262 264 267 264 262 257
303 300 300 300 302 305 306 308 306 304 304 302 305 310 307 308 310 310 313 312 316 315 311 305 299 293 288 283 278 266 264 263 258 256 257 258 264 263
299 296 296 296 299 305 307 307 302 300 301 302 303 305 302 305 302 300 299 308 307 308 307 307 303 296 287 279 274 275 273 269 263 262 259 260 257 257
297 296 294 294 296 300 304 307 297 298 298 299 301 299 296 293 294 294 301 301 300 307 305 302 301 297 294 290 286 284 276 275 270 263 260 258 252 250
292 293 294 295 297 300 301 300 296 293 295 300 298 296 297 298 302 299 295 297 297 295 298 296 294 292 297 298 293 300 292 271 273 267 261 252 250 254
287 290 292 294 295 297 298 298 298 301 304 305 302 301 300 303 299 297 298 295 289 294 293 288 289 295 293 294 291 294 287 276 278 268 260 251 251 256
285 287 289 290 293 294 298 301 300 297 299 302 300 299 295 296 290 289 288 289 287 291 296 283 286 292 293 292 293 294 281 288 272 262 257 247 252 252
284 283 285 289 293 295 295 291 291 297 304 305 302 301 300 303 296 288 286 289 294 297 299 297 281 296 292 298 297 291 297 290 276 251 250 251 248 255
285 287 288 289 291 293 295 296 292 300 300 299 297 296 298 301 299 297 294 289 290 288 288 285 281 291 272 280 287 293 295 289 280 262 254 257 257 252
286 289 290 290 292 296 296 292 293 299 292 296 299 298 304 296 301 299 291 292 285 286 284 281 280 279 282 283 279 286 294 292 276 266 261 258 247 234
289 290 293 296 294 295 293 296 300 296 294 301 294 303 308 295 300 296 300 300 295 287 286 286 277 273 273 274 272 279 283 277 269 266 263 267 263 251
297 297 296 296 295 295 295 297 307 298 309 302 297 306 306 301 295 306 307 304 299 298 298 292 277 267 269 271 270 272 268 260 274 272 274 279 258 254
297 293 294 295 296 295 299 305 306 299 309 302 302 305 304 304 306 309 303 304 301 299 297 294 284 268 259 268 276 250 266 271 277 274 277 276 261 257
297 295 295 295 298 301 303 302 311 307 304 305 302 302 302 305 308 307 304 306 300 293 286 285 290 281 269 257 239 262 276 275 274 273 274 269 270 270
296 298 301 303 303 302 300 303 311 304 306 303 302 305 305 308 308 307 309 303 297 288 278 270 288 277 263 254 273 278 280 273 273 275 276 273 271 267
307 304 303 302 304 301 296 302 303 305 306 304 304 303 309 308 306 308 305 299 290 287 272 274 274 272 273 279 275 276 283 278 272 269 283 285 280 267
310 306 307 302 294 302 302 303 303 304 305 304 300 301 308 309 305 304 296 285 283 294 289 294 270 237 242 263 278 291 296 294 272 264 271 283 288 281
314 307 299 302 304 305 306 305 305 307 307 307 307 309 310 306 304 299 278 266 272 284 304 267 260 264 267 278 294 299 303 299 286 277 266 262 265 276
310 310 310 309 308 308 308 307 306 306 307 308 311 314 312 310 294 281 268 264 278 265 274 260 278 271 286 291 301 310 316 323 324 310 295 279 268 266
Height
1497 1495 1493 1491 1489 1487 1484 1482 1478 1473 1466 1464 1464 1463 1462 1460 1458 1456 1453 1452 1451 1449 1448 1447 1447 1447 1447 1447 1447 1447 1447 1447 1447 1448 1448 1448 1448 1449
1493 1491 1490 1487 1484 1481 1479 1477 1475 1471 1466 1461 1458 1457 1455 1453 1451 1449 1448 1445 1443 1442 1441 1440 1439 1438 1438 1438 1439 1439 1440 1440 1440 1440 1441 1442 1442 1442
1489 1485 1483 1481 1479 1477 1474 1472 1469 1467 1460 1456 1453 1450 1447 1446 1444 1442 1440 1438 1437 1434 1433 1432 1431 1430 1430 1429 1429 1430 1431 1432 1432 1432 1432 1433 1434 1435
1485 1481 1478 1475 1473 1470 1468 1465 1462 1460 1456 1451 1448 1444 1441 1438 1436 1434 1433 1431 1429 1428 1426 1424 1423 1421 1421 1421 1420 1420 1421 1422 1423 1423 1423 1424 1425 1426
1479 1475 1473 1470 1466 1464 1462 1459 1456 1453 1451 1447 1442 1440 1436 1434 1430 1428 1426 1424 1422 1421 1419 1418 1416 1414 1413 1412 1411 1411 1412 1413 1414 1414 1414 1415 1416 1417
1473 1470 1467 1464 1461 1458 1455 1453 1450 1446 1444 1441 1439 1436 1433 1431 1428 1424 1419 1418 1415 1414 1412 1410 1408 1406 1405 1403 1403 1402 1402 1402 1403 1404 1404 1405 1407 1408
1466 1465 1462 1458 1455 1452 1449 1447 1444 1441 1439 1436 1433 1431 1428 1425 1424 1420 1416 1412 1409 1408 1404 1402 1400 1398 1397 1396 1394 1394 1393 1392 1392 1393 1394 1395 1397 1399
1460 1458 1457 1454 1450 1447 1444 1441 1439 1435 1433 1431 1428 1425 1422 1420 1417 1415 1411 1407 1401 1402 1397 1392 1392 1388 1387 1385 1386 1385 1384 1383 1382 1382 1384 1385 1387 1389
1453 1450 1449 1447 1444 1440 1438 1435 1433 1431 1429 1427 1423 1420 1416 1414 1410 1407 1404 1400 1395 1393 1393 1385 1385 1379 1378 1376 1375 1375 1373 1373 1373 1372 1373 1376 1377 1379
1445 1443 1440 1439 1437 1433 1429 1427 1424 1422 1420 1418 1415 1411 1408 1406 1403 1399 1395 1391 1386 1384 1385 1378 1377 1370 1368 1367 1365 1365 1364 1364 1364 1364 1365 1366 1368 1370
1437 1436 1433 1430 1429 1427 1423 1419 1416 1413 1412 1410 1407 1403 1401 1398 1396 1392 1387 1384 1377 1373 1375 1372 1366 1363 1360 1356 1357 1356 1356 1355 1354 1356 1357 1359 1360 1361
1429 1427 1426 1423 1421 1419 1416 1413 1410 1407 1404 1400 1396 1393 1391 1388 1386 1384 1380 1376 1371 1364 1365 1364 1360 1360 1353 1348 1348 1349 1349 1349 1347 1348 1349 1351 1352 1353
1420 1418 1417 1415 1413 1410 1408 1406 1403 1401 1396 1393 1389 1384 1381 1378 1375 1373 1371 1368 1363 1358 1358 1357 1352 1352 1350 1344 1341 1342 1342 1342 1342 1342 1343 1344 1345 1346
1412 1410 1408 1406 1404 1402 1401 1399 1396 1393 1388 1385 1380 1375 1372 1368 1366 1364 1361 1358 1355 1351 1349 1349 1345 1344 1342 1339 1337 1336 1336 1337 1337 1337 1338 1338 1339 1339
1405 1402 1400 1398 1396 1394 1393 1391 1388 1385 1380 1375 1371 1367 1364 1361 1358 1354 1352 1348 1344 1342 1341 1339 1337 1336 1335 1333 1333 1331 1332 1332 1332 1333 1333 1333 1333 1333
1398 1395 1392 1390 1388 1387 1384 1381 1379 1375 1371 1366 1362 1359 1355 1352 1349 1347 1343 1340 1337 1334 1332 1331 1330 1329 1328 1327 1327 1327 1328 1329 1328 1329 1329 1328 1328 1328
1391 1387 1384 1382 1379 1377 1374 1371 1369 1366 1362 1359 1356 1351 1348 1346 1343 1340 1337 1333 1331 1328 1326 1326 1325 1323 1323 1323 1323 1324 1325 1325 1325 1325 1324 1324 1324 1324
1383 1380 1377 1375 1372 1369 1366 1363 1361 1357 1354 1351 1348 1345 1342 1339 1336 1333 1330 1327 1325 1323 1322 1321 1320 1320 1320 1320 1321 1321 1321 1321 1321 1321 1320 1319 1319 1319
1377 1374 1371 1368 1365 1362 1359 1356 1352 1350 1347 1344 1341 1339 1337 1334 1330 1327 1324 1322 1320 1319 1318 1318 1317 1317 1318 1318 1319 1319 1318 1318 1317 1317 1316 1315 1314 1315
1372 1368 1364 1361 1358 1355 1353 1349 1345 1342 1340 1338 1335 1333 1331 1328 1324 1322 1320 1318 1317 1316 1316 1316 1316 1316 1316 1317 1316 1316 1316 1315 1314 1314 1313 1312 1312 1312
1364 1361 1358 1355 1352 1349 1344 1341 1339 1336 1334 1332 1330 1328 1325 1322 1320 1318 1316 1315 1315 1314 1314 1314 1314 1314 1315 1315 1315 1314 1313 1312 1311 1310 1310 1310 1310 1309
1358 1355 1352 1348 1344 1341 1338 1335 1333 1331 1329 1327 1325 1322 1320 1318 1316 1315 1314 1313 1313 1313 1313 1313 1313 1313 1313 1313 1313 1311 1310 1309 1308 1307 1307 1308 1308 1308
1351 1347 1343 1340 1337 1335 1332 1330 1328 1326 1324 1322 1320 1318 1316 1314 1313 1313 1312 1312 1312 1312 1312 1312 1312 1312 1312 1312 1311 1310 1308 1307 1306 1306 1305 1305 1305 1305